SCP
0 0 0 0 0 0 0 0 0 0 0 0 0 0 0 0 0 0 0 0 1 0 0 0 0 0 0 0 0 0 0 0 0 0 0 0 0 -0 0 0 0 0 0 0
0 0 0 0 0 0 0 0 0 0 0 0 0 0 0 0 0 0 0 0 0 0 0 0 0 0 0 0 0 0 0 0 0 0 0 0 0 0 0 0 0 0 0 0
0 0 0 0 0 0 0 0 0 0 0 0 0 0 0 0 0 0 0 0 0 0 0 0 0 0 0 0 0 0 0 0 0 0 0 0 0 0 0 0 0 0 0 0
0 0 0 0 0 0 0 0 0 0 0 0 0 0 0 0 0 0 0 0 0 0 0 0 0 0 0 0 0 0 0 0 0 0 0 0 0 0 0 0 0 0 0 0
0 -0 -0 -0 -0 0 0 0 0 0 0 0 0 0 0 0 0 0 0 0 0 0 0 0 0 0 0 0 0 0 0 0 0 0 0 0 0 0 0 0 0 0 0 0
0 -0 -0 -0 0 0 -0 -0 0 0 0 0 0 0 0 0 0 0 0 0 0 0 0 0 0 0 0 0 0 0 0 0 0 0 0 0 0 0 0 0 0 0 0 0
0 0 0 0 0 0 -0 -0 0 0 0 0 0 0 0 0 0 0 0 0 0 0 0 0 0 0 0 0 0 0 0 0 0 0 0 0 0 0 0 0 0 0 0 0
0 0 0 0 0 0 0 0 0 0 0 0 0 0 0 0 0 0 0 0 0 0 0 0 0 0 0 0 0 0 0 0 0 0 0 0 0 0 0 0 0 0 0 0
0 0 0 0 0 0 0 0 0 0 0 0 0 0 0 0 0 0 0 0 0 0 0 0 0 0 0 0 0 0 0 0 0 0 0 0 0 0 0 0 0 0 0 0
0 0 0 0 0 0 0 0 0 0 0 0 0 0 0 0 0 0 0 0 0 0 0 0 0 0 0 0 0 0 0 0 0 0 0 0 0 0 0 0 0 0 0 0
0 0 0 0 0 0 0 0 0 0 0 0 0 0 0 0 0 0 0 0 0 0 0 0 0 0 0 0 0 0 0 0 0 0 0 0 0 0 0 0 0 0 0 0
0 0 0 0 0 0 0 0 0 0 0 0 0 0 0 0 0 0 0 0 0 0 0 0 0 0 0 0 0 0 0 0 0 0 0 0 0 0 0 0 0 0 0 0
0 0 0 0 0 0 0 0 0 0 0 0 0 0 0 0 0 0 0 0 0 0 0 0 0 0 0 0 0 0 0 0 0 0 -0 0 0 0 0 0 0 0 0 0
0 0 0 0 0 0 0 0 0 0 0 0 0 0 0 0 0 0 0 0 0 0 0 0 0 0 0 0 0 0 -0 0 0 0 0 -0 -0 -0 -0 -0 -0 0 0 0
0 0 0 0 0 0 0 0 0 0 0 0 0 0 0 0 0 0 0 0 0 0 0 0 0 0 0 0 0 -0 0 0 0 0 0 -0 -0 -0 -0 -0 -0 0 0 0
0 0 0 0 0 0 0 0 0 0 0 0 0 0 0 0 0 0 0 0 0 0 0 0 0 0 0 0 0 -0 0 0 0 0 0 -0 -0 -0 -0 -0 -0 0 0 0
0 0 0 0 0 0 0 0 0 0 0 0 0 0 0 0 0 0 0 0 0 0 0 0 0 0 0 0 0 0 0 0 0 0 -0 -0 -0 -0 0 0 0 0 0 -0
0 0 0 0 0 0 0 0 0 0 0 0 0 0 0 0 0 0 0 0 0 0 0 0 0 0 0 0 0 0 0 0 0 0 0 0 0 0 0 0 0 0 0 0
0 0 0 0 0 0 0 0 0 0 0 0 0 0 0 0 0 0 0 0 0 0 0 0 0 0 0 0 0 0 0 0 0 0 0 0 -0 0 0 0 0 0 0 0
0 0 0 0 0 0 0 0 0 0 0 0 0 0 0 0 0 0 0 0 0 0 0 0 0 0 0 0 0 0 0 0 0 0 0 0 0 0 0 0 0 0 0 0
0 0 0 0 0 0 0 0 0 0 0 0 0 0 0 0 0 0 0 0 0 0 0 0 0 0 0 0 0 0 0 0 0 0 0 0 0 0 0 0 0 0 0 0
0 0 0 0 0 0 0 0 0 0 0 0 0 0 0 0 0 0 0 0 0 0 0 0 0 0 0 0 0 0 0 0 0 0 0 0 0 0 0 0 0 0 0 0
0 0 0 0 0 0 0 0 0 0 0 0 0 0 0 0 0 0 0 0 0 0 0 0 0 0 0 0 0 0 0 0 0 0 0 0 0 0 0 0 0 0 0 0
0 0 0 0 0 0 0 0 0 0 0 0 0 0 0 0 0 0 0 0 0 0 0 0 0 0 0 0 0 0 0 0 0 0 0 0 0 0 0 0 0 0 0 0
0 0 0 0 0 0 0 0 0 0 0 0 0 0 0 0 0 0 0 0 0 0 0 0 0 0 0 0 0 0 0 0 0 0 0 0 0 0 0 0 0 0 0 0
0 0 0 0 0 0 0 0 0 0 0 0 0 0 0 0 0 0 0 0 0 0 0 0 0 0 0 0 0 0 0 0 0 0 0 0 0 0 0 0 0 0 0 0
0 0 0 0 0 0 0 0 0 0 0 0 0 0 0 0 0 0 0 0 0 0 0 0 0 0 0 0 0 0 0 0 0 0 0 0 0 0 0 0 0 0 0 0
Wind_Speed
5 7 3 4 5 6 7 8 8 9 9 13 12 9 10 11 5 7 7 9 11 11 11 9 9 9 9 9 8 8 7 7 7 5 5 4 4 3 3 3 5 5 5 5
7 7 3 9 11 10 11 10 13 13 13 14 12 3 8 8 7 8 8 11 12 12 10 10 10 11 9 8 9 9 9 9 7 6 6 6 6 5 5 5 4 4 4 4
5 4 8 11 9 11 11 12 12 15 14 7 4 6 7 9 8 11 9 9 8 6 5 5 6 7 10 10 8 11 13 12 10 9 8 8 7 5 4 3 2 2 3 3
2 2 6 11 7 10 9 11 14 16 10 8 8 7 4 7 7 6 6 5 4 4 3 2 1 5 7 7 9 12 12 11 11 10 11 10 9 8 6 4 3 3 3 3
1 2 10 14 9 3 5 12 14 17 12 5 5 3 3 2 3 7 6 6 5 5 4 4 5 4 3 4 5 6 7 8 10 10 9 9 9 9 6 4 4 3 3 3
2 2 6 9 7 10 8 6 4 4 5 6 6 4 4 1 5 8 7 6 7 5 5 5 5 6 8 6 4 1 4 4 6 9 8 7 6 5 3 3 4 3 4 4
2 2 10 12 9 6 3 4 3 5 5 6 5 5 7 8 7 7 7 7 6 6 6 5 5 7 8 7 6 3 3 5 4 4 5 8 8 4 1 4 3 3 3 3
2 4 10 6 6 3 8 6 2 3 2 3 4 7 9 9 8 7 7 5 5 6 5 4 5 8 7 5 3 3 4 4 5 7 7 7 6 5 5 6 3 3 2 2
4 10 6 10 9 16 17 10 1 2 2 6 6 6 8 8 8 7 7 5 4 5 4 3 3 6 6 3 3 5 4 3 2 5 6 5 6 7 6 5 4 3 2 3
6 10 12 16 14 17 15 8 4 5 5 8 7 8 7 8 7 6 5 5 5 5 4 2 1 2 3 2 3 4 3 2 3 4 5 4 3 4 5 3 3 3 3 3
7 10 16 14 13 17 18 9 4 4 4 6 9 11 11 8 8 7 5 4 5 5 4 5 4 4 3 2 3 3 3 3 2 2 3 3 2 1 2 3 3 3 3 3
7 7 7 17 19 24 24 19 3 2 2 3 7 10 10 9 8 7 6 5 5 4 5 5 5 5 4 3 4 3 2 2 1 1 2 2 3 4 8 5 4 5 2 3
6 12 16 21 22 26 18 16 6 2 4 4 5 8 10 9 8 8 7 7 6 6 5 3 2 4 5 4 4 4 3 2 1 1 1 2 2 3 3 2 4 5 3 3
13 14 18 21 21 23 23 22 14 3 3 6 7 8 9 8 7 8 8 9 7 5 3 3 4 5 5 5 5 4 3 3 2 1 2 2 2 2 3 3 2 1 2 2
16 16 19 23 25 23 20 17 11 5 3 4 6 9 11 11 11 10 9 7 4 4 4 6 6 5 5 6 6 4 3 2 1 1 1 1 1 1 1 1 2 3 2 2
16 17 15 21 25 20 13 11 9 7 5 6 8 10 13 13 11 9 7 6 6 6 7 7 6 6 6 7 6 4 3 4 2 1 1 1 0 1 2 3 4 3 3 3
19 21 19 20 19 16 13 11 10 9 6 8 10 10 10 9 8 7 7 7 7 7 8 8 7 7 7 7 6 4 3 3 3 1 1 1 2 2 3 4 3 3 2 3
17 22 20 17 16 17 18 15 12 10 7 7 9 10 10 11 11 10 8 5 5 5 5 6 7 7 6 6 5 4 4 3 2 1 1 2 3 2 2 2 2 2 1 1
19 14 21 21 19 16 15 14 11 10 6 6 10 12 13 13 11 8 7 6 7 7 7 8 11 9 7 6 5 3 3 3 2 1 1 3 3 2 2 2 2 2 2 2
24 25 22 21 22 18 15 15 11 9 7 7 10 10 9 9 8 8 8 8 7 6 9 10 10 7 7 7 7 4 3 3 2 2 3 3 3 2 2 2 2 2 2 2
23 23 24 20 19 18 15 13 9 10 8 7 10 12 12 10 8 8 7 5 5 8 11 11 8 6 5 5 6 3 4 3 3 3 3 3 2 2 2 2 2 2 1 1
25 23 24 20 14 15 13 10 9 8 5 5 8 9 8 7 7 5 4 5 7 10 8 6 6 8 8 7 4 4 4 4 3 3 3 2 2 2 2 2 2 1 1 1
22 22 24 22 12 10 7 6 7 7 6 6 7 9 10 9 9 8 6 5 8 11 8 7 10 13 12 6 4 5 5 4 4 3 3 3 2 2 2 3 3 2 2 1
22 23 23 22 14 3 4 6 6 5 5 5 7 9 11 8 4 2 7 11 14 13 9 10 14 14 9 4 4 4 4 4 4 3 3 3 3 3 3 3 3 2 2 3
20 21 22 21 14 8 6 4 2 3 3 3 4 6 6 7 8 9 9 11 14 12 9 13 17 13 6 5 5 5 4 3 4 3 3 3 3 3 3 3 3 3 3 3
18 16 18 19 14 9 5 2 3 4 5 4 4 4 5 6 9 9 9 11 10 10 8 7 8 7 4 5 5 5 4 4 4 3 3 3 3 3 3 3 3 3 3 2
16 17 16 17 14 10 6 3 4 5 6 8 6 5 6 8 9 10 10 9 8 7 7 6 7 6 5 5 5 5 4 3 2 2 2 3 3 3 3 3 3 3 2 2
Wind_Direction
269 282 256 248 245 230 197 197 217 237 230 256 255 256 285 275 225 175 184 174 184 195 203 196 193 190 189 186 177 171 175 189 200 189 181 191 202 203 221 242 243 255 252 241
276 296 293 263 250 243 242 225 228 242 242 238 244 249 281 263 191 191 198 195 199 203 203 199 197 196 193 194 185 176 186 199 197 187 186 194 214 212 208 225 233 230 231 237
304 330 320 284 255 233 225 220 229 236 236 221 210 196 226 245 215 207 199 206 213 211 212 221 217 200 199 201 177 189 197 198 195 185 188 195 197 199 220 216 197 236 247 238
283 353 263 265 265 257 249 254 241 238 231 205 202 213 235 227 175 154 137 129 118 116 105 77 158 198 208 190 193 203 196 194 196 189 195 189 177 181 186 181 205 232 246 262
318 275 294 304 302 270 213 256 239 223 225 218 175 100 327 328 116 135 131 125 113 101 83 50 33 34 104 161 191 208 191 183 189 191 198 187 179 169 163 177 203 215 225 237
75 308 267 268 298 338 337 313 336 127 161 151 128 128 238 75 83 93 98 105 109 104 89 66 33 48 64 66 90 201 213 180 187 186 182 158 135 129 147 190 221 219 233 225
121 260 266 268 282 313 350 296 344 87 123 146 162 175 150 120 105 108 111 110 103 89 76 61 73 77 68 67 66 57 79 108 111 114 122 121 127 152 175 257 243 246 227 218
163 230 255 342 326 307 307 297 98 91 132 134 117 117 121 125 129 126 120 115 108 97 85 72 83 88 80 75 75 80 80 95 118 116 116 136 160 194 197 232 230 244 195 224
250 246 295 324 286 290 290 278 210 112 114 126 131 141 138 140 140 135 131 134 131 124 115 104 113 116 119 158 152 120 110 126 138 128 128 154 194 194 190 192 178 203 203 216
274 291 327 307 305 316 293 242 176 176 163 157 168 157 148 147 140 140 149 154 158 143 150 200 208 174 157 168 139 113 111 143 164 156 154 179 199 186 165 159 175 193 205 215
276 316 337 323 320 323 338 310 178 196 184 162 160 166 161 155 154 162 166 171 168 175 195 234 248 237 230 185 142 99 87 108 119 161 162 139 112 83 150 164 174 178 204 207
253 269 291 287 301 318 322 302 273 174 163 167 162 163 155 156 162 167 175 178 186 205 220 247 263 227 202 173 138 118 90 72 72 112 105 104 119 77 51 54 86 113 141 168
270 281 283 288 301 303 313 310 291 197 182 175 160 151 151 158 167 171 177 186 201 216 229 260 243 174 167 154 134 139 135 129 103 101 110 120 127 141 137 77 46 48 53 84
271 271 275 274 282 295 302 303 289 225 178 173 163 152 149 148 160 177 191 201 206 207 209 186 168 168 165 151 144 140 130 131 130 130 144 151 159 165 166 161 142 70 39 58
259 256 261 275 279 278 282 291 278 239 204 174 162 156 153 160 175 193 206 205 185 184 190 167 172 178 157 141 134 134 137 142 145 131 102 104 109 79 94 120 126 123 121 91
274 278 273 272 277 282 286 290 275 252 217 183 175 174 172 173 180 194 208 188 170 191 183 171 178 169 143 133 135 145 155 159 162 113 83 62 72 145 134 132 136 152 174 169
251 258 260 263 270 281 282 283 286 268 240 188 186 176 167 167 176 196 212 202 200 191 171 169 170 156 143 142 146 157 161 166 151 113 125 127 134 128 137 143 148 170 203 181
253 245 251 258 274 283 285 287 294 275 235 201 174 165 167 174 186 199 207 185 175 159 167 168 152 143 140 147 152 157 156 151 144 188 192 166 157 145 136 148 165 173 155 159
343 279 261 260 258 260 266 268 268 264 244 178 164 180 183 187 190 191 170 162 166 168 181 161 149 141 144 150 142 136 146 146 151 178 110 128 130 135 138 140 144 158 161 184
346 339 312 277 260 255 256 257 254 251 231 180 176 177 181 190 182 171 167 177 185 173 155 153 147 146 151 148 132 129 136 141 138 99 109 127 136 141 152 161 156 166 185 195
336 329 320 290 257 248 241 241 234 230 222 185 178 184 188 185 170 162 160 178 183 150 145 145 144 146 150 143 131 137 135 129 129 119 108 116 137 157 168 175 181 182 193 197
330 328 324 309 258 241 239 231 220 220 213 193 190 178 162 156 150 147 157 167 155 138 133 132 139 147 149 143 144 141 125 127 130 121 112 115 138 161 152 142 153 154 167 197
321 325 325 322 286 246 236 216 209 206 197 184 177 168 160 161 161 160 167 144 136 131 129 137 144 145 143 145 148 137 128 128 130 130 128 119 115 110 106 107 113 113 120 112
324 327 325 321 312 281 228 230 221 214 204 185 180 168 150 137 111 98 121 129 133 128 133 144 146 141 137 136 128 124 123 135 142 147 140 129 120 110 101 99 97 98 98 82
318 321 324 327 322 308 280 252 197 184 177 162 160 155 151 152 150 147 132 130 131 128 138 150 148 141 138 134 128 124 129 144 139 132 145 158 156 143 125 113 100 94 90 85
319 324 323 317 306 296 285 204 166 177 145 115 98 106 105 102 109 121 125 127 133 134 137 139 136 131 132 131 131 134 146 154 151 156 158 144 133 135 133 132 126 106 98 96
321 322 321 318 319 325 317 264 182 171 159 143 128 119 116 116 119 124 127 128 133 135 135 136 135 131 133 139 140 145 150 156 161 145 125 124 138 144 140 137 131 133 136 128